Starlink 31053

operational
NORAD ID: 58549 Int'l Des: 2023-192 Owner: SPXS Country: US Constellation: starlink
LEOCIRCULAR

About Starlink 31053

Description loading...

Live Position

Loading 3D Globe...

Upcoming Passes

Altitude History

Altitude vs Time

uPlot chart will show altitude changes over time

Two-Line Element Set

1 58549U 23192U 25346.63929477 -.00001003 00000-0 -21759-4 0 9999
2 58549 53.1611 107.3607 0001358 106.2408 253.8742 15.30194704112652
Epoch: Dec 12, 2025 • Age: 16 hours

Current Status

Altitude 485.0 km
Velocity 7.62 km/s
Sub-Earth Point -29.60°S, 105.69°W
Launch Date Dec 8, 2023
Age 2 years
Type internet

Technical Details

Classification Payload
Mass 730.00 kg
Dry Mass 700.00 kg
Total Mass 730.00 kg
Length 0.30 m
Diameter 4.10 m
Span 29.00 m
Shape Box + pan
Manufacturer SPXS
Bus Type Starlink V2M
Phase Status In Orbit
Owner/State SPXS/US

Large Constellations

Loading constellations...